Regional Weather Roundup
Issued by NWS

Current Version | Previous Version | Text Only | Print | Product List | Glossary On
Versions: 1 2 3 4 5 6 7 8 9 10 11 12 13 14 15 16 17 18 19 20 21 22 23 24 25 26 27
000
ASUS45 KBOI 290210
RWRID

IDAHO REGIONAL WEATHER ROUNDUP
NATIONAL WEATHER SERVICE BOISE ID
800 PM MDT THU JUL 28 2016

NOTE: "FAIR" INDICATES FEW OR NO CLOUDS BELOW 12000 FEET
WITH NO SIGNIFICANT WEATHER AND/OR OBSTRUCTIONS TO VISIBILITY

IDZ012-014-290300-
SOUTHWEST IDAHO


CITY           SKY/WX    TMP DP  RH WIND       PRES   REMARKS
BOISE          SUNNY     97  32  10 NW8       29.93F HX  91
CALDWELL       SUNNY     97  52  21 CALM      29.91F HX  94
MOUNTAIN HOME  SUNNY     98  35  11 NW16      29.94F HX  92
$$

IDZ016-017-290300-
SOUTHCENTRAL IDAHO


CITY           SKY/WX    TMP DP  RH WIND       PRES   REMARKS
BURLEY         CLEAR     84  48  28 W9        30.01F
JEROME         CLEAR     87  46  24 W8        30.01F
TWIN FALLS     CLEAR     91  40  16 W8        30.03F
$$

IDZ019>023-290300-
SOUTHEAST IDAHO


CITY           SKY/WX    TMP DP  RH WIND       PRES   REMARKS
IDAHO FALLS    CLEAR     90  37  15 S8        30.05F
POCATELLO      CLEAR     90  38  16 SW13      30.04S
REXBURG        NOT AVBL
$$

IDZ006-010-011-018-031-032-290300-
CENTRAL IDAHO MOUNTAINS


CITY           SKY/WX    TMP DP  RH WIND       PRES   REMARKS
MCCALL         SUNNY     84  39  20 NW7       30.14F
HAILEY         CLEAR     84  37  18 W9        30.10R
STANLEY          N/A     83  28  13 NW9       30.22F
SALMON         SUNNY     84  46  26 N6        29.99F
CHALLIS        SUNNY     85  41  21 N6        30.06S
$$

IDZ002-004-006-007-026-290300-
NORTHERN IDAHO


CITY           SKY/WX    TMP DP  RH WIND       PRES   REMARKS
LEWISTON       SUNNY     98  44  15 N7        29.91F HX  94
LOWELL           N/A     79  57  46 CALM      29.92S
COEUR D`ALENE  SUNNY     90  46  22 CALM      29.96S
MULLAN PASS    SUNNY     71  43  36 VRB3      30.25F
$$




USA.gov is the U.S. government's official web portal to all federal, state and local government web resources and services.